Вернуться в каталог

STARLINK-34909

АктивенСвязьSSO
NORAD 65401·PAYLOAD·🇺🇸 United States

Запущен Aug 30, 2025 с Vandenberg Space Force Base

Loading…

Ближайшие Пролёты (ближайшие 24 часа)

TLE

СвежийSource: CelesTrak SupGP

Эпоха: Sep 14, 2026, 22:47 UTC

1 65401C 25191Y   26257.94979167  .00053679  00000+0  16650-2 0  2574
2 65401  97.2846 124.1084 0002409  89.7118 200.6323 15.33435818    11

Отслеживайте STARLINK-34909 в реальном времени с AllMySat

Download on the App Store